EA3KZ-1 Weather Reports


time (UTC)temp
C
wind
direction
speed
KPH
gust
KPH
rain 1hr
cm
rain 24hr
cm
rain mn
cm
humidity
%
barometer
mb
20260831062517 22 248 0.0 3.2 0.00 0.00 0.00 63 1014.8
20260831061614 22 248 0.0 3.2 0.00 0.00 0.00 61 1014.8
20260831060612 21 248 0.0 3.2 0.00 0.00 0.00 59 1014.7
20260831055610 21 0.0 3.2 0.00 0.00 0.00 57 1014.5
20260831054607 21 264 1.6 3.2 0.00 0.00 0.00 57 1014.4
20260831053604 21 236 0.0 3.2 0.00 0.00 0.00 56 1014.4
20260831052602 20 258 1.6 3.2 0.00 0.00 0.00 57 1014.1
20260831051559 20 268 3.2 3.2 0.00 0.00 0.00 55 1014.1
20260831050556 21 270 0.0 3.2 0.00 0.00 0.00 54 1014.2
20260831045554 21 248 1.6 3.2 0.00 0.00 0.00 54 1014.1
20260831044551 20 259 3.2 6.4 0.00 0.00 0.00 54 1014.2
20260831043549 20 259 0.0 3.2 0.00 0.00 0.00 54 1014.1
20260831042546 21 257 1.6 3.2 0.00 0.00 0.00 54 1014.2
20260831041543 21 236 1.6 3.2 0.00 0.00 0.00 53 1014.2
20260831040541 21 0.0 0.0 0.00 0.00 0.00 53 1014.0
20260831035538 21 248 0.0 3.2 0.00 0.00 0.00 53 1014.0
20260831034535 21 260 3.2 6.4 0.00 0.00 0.00 53 1014.1
20260831033533 21 265 3.2 6.4 0.00 0.00 0.00 53 1014.0
20260831032530 21 0.0 0.0 0.00 0.00 0.00 53 1014.2
20260831031528 21 0.0 0.0 0.00 0.00 0.00 52 1014.1
20260831030525 21 0.0 3.2 0.00 0.00 0.00 52 1014.1
20260831025523 21 261 3.2 6.4 0.00 0.00 0.00 52 1014.0
20260831024520 21 252 3.2 3.2 0.00 0.00 0.00 52 1014.0
20260831023518 21 231 1.6 3.2 0.00 0.00 0.00 53 1014.1
20260831022515 21 248 0.0 3.2 0.00 0.00 0.00 53 1014.0
20260831021612 21 255 3.2 6.4 0.00 0.00 0.00 53 1013.9
20260831020610 21 252 1.6 3.2 0.00 0.00 0.00 53 1014.0
20260831015607 21 251 3.2 6.4 0.00 0.00 0.00 53 1014.1
20260831014605 21 216 1.6 3.2 0.00 0.00 0.00 54 1014.1
20260831013602 21 45 1.6 6.4 0.00 0.00 0.00 50 1013.9
20260831012600 21 0.0 0.0 0.00 0.00 0.00 52 1013.8
20260831011557 21 289 1.6 6.4 0.00 0.00 0.00 52 1013.8
20260831010554 21 270 0.0 3.2 0.00 0.00 0.00 53 1013.8
20260831005552 21 257 1.6 3.2 0.00 0.00 0.00 53 1013.9
20260831004549 21 244 3.2 3.2 0.00 0.00 0.00 53 1013.9
20260831003547 21 242 0.0 3.2 0.00 0.00 0.00 52 1013.8
20260831002544 21 167 0.0 3.2 0.00 0.00 0.00 53 1013.8
20260831001541 21 240 1.6 3.2 0.00 0.00 0.00 57 1013.7
20260831000539 21 0.0 0.0 0.00 0.00 0.00 59 1013.7
20260830235536 21 281 1.6 3.2 0.00 0.00 0.00 58 1013.8
20260830234534 21 135 1.6 3.2 0.00 0.00 0.00 58 1013.8
20260830233531 21 0.0 0.0 0.00 0.00 0.00 62 1014.1
20260830232528 22 237 3.2 6.4 0.00 0.00 0.00 61 1014.1
20260830231526 21 240 1.6 3.2 0.00 0.00 0.00 63 1014.0
20260830230523 21 236 3.2 6.4 0.00 0.00 0.00 67 1014.0
20260830225521 21 233 3.2 6.4 0.00 0.00 0.00 64 1014.1
20260830224518 21 205 3.2 6.4 0.00 0.00 0.00 67 1014.1
20260830223515 22 183 3.2 6.4 0.00 0.00 0.00 69 1014.1
20260830222613 22 177 3.2 6.4 0.00 0.00 0.00 71 1014.1
20260830221610 22 192 4.8 6.4 0.00 0.00 0.00 68 1014.0
20260830220608 22 198 3.2 6.4 0.00 0.00 0.00 66 1013.8
20260830215605 22 207 3.2 6.4 0.00 0.00 0.00 64 1013.9
20260830214603 22 231 4.8 6.4 0.00 0.00 0.00 66 1013.9
20260830213600 23 213 3.2 6.4 0.00 0.00 0.00 65 1013.8
20260830212557 22 224 4.8 9.7 0.00 0.00 0.00 62 1013.7
20260830211555 22 204 3.2 6.4 0.00 0.00 0.00 58 1013.7
20260830210552 23 220 4.8 6.4 0.00 0.00 0.00 58 1013.8
20260830205550 23 202 4.8 6.4 0.00 0.00 0.00 59 1013.8
20260830204547 23 239 4.8 9.7 0.00 0.00 0.00 58 1013.9
20260830203545 23 193 1.6 6.4 0.00 0.00 0.00 57 1013.7
20260830202542 23 198 4.8 11.3 0.00 0.00 0.00 55 1013.7
20260830201539 24 186 3.2 6.4 0.00 0.00 0.00 52 1013.6
20260830200537 24 206 3.2 6.4 0.00 0.00 0.00 50 1013.5
20260830195534 25 223 1.6 3.2 0.00 0.00 0.00 47 1013.6
20260830194531 25 217 1.6 6.4 0.00 0.00 0.00 47 1013.4
20260830193529 25 203 3.2 6.4 0.00 0.00 0.00 46 1013.5
20260830192526 25 206 3.2 6.4 0.00 0.00 0.00 45 1013.3
20260830191524 25 181 4.8 9.7 0.00 0.00 0.00 44 1013.1
20260830190521 26 187 4.8 6.4 0.00 0.00 0.00 43 1013.0
20260830185519 26 138 4.8 11.3 0.00 0.00 0.00 43 1013.0
20260830184516 26 181 4.8 11.3 0.00 0.00 0.00 42 1012.8
20260830183614 26 113 6.4 12.9 0.00 0.00 0.00 40 1012.8
20260830182611 27 138 8.0 12.9 0.00 0.00 0.00 39 1012.7
20260830181609 27 142 4.8 11.3 0.00 0.00 0.00 39 1012.6
20260830180606 27 137 9.7 17.7 0.00 0.00 0.00 38 1012.6
20260830175603 27 156 9.7 22.5 0.00 0.00 0.00 39 1012.6
20260830174601 27 141 8.0 17.7 0.00 0.00 0.00 39 1012.6
20260830173558 28 141 9.7 17.7 0.00 0.00 0.00 40 1012.7
20260830172556 28 155 9.7 17.7 0.00 0.00 0.00 40 1012.5
20260830171553 28 130 6.4 14.5 0.00 0.00 0.00 41 1012.4
20260830170550 28 119 9.7 17.7 0.00 0.00 0.00 41 1012.5
20260830165548 28 115 8.0 20.9 0.00 0.00 0.00 41 1012.5
20260830164545 28 123 12.9 20.9 0.00 0.00 0.00 42 1012.6
20260830163542 29 122 9.7 20.9 0.00 0.00 0.00 41 1012.5
20260830162540 29 150 11.3 17.7 0.00 0.00 0.00 40 1012.5
20260830161537 30 127 12.9 22.5 0.00 0.00 0.00 39 1012.4
20260830160535 30 150 8.0 17.7 0.00 0.00 0.00 38 1012.4
20260830155532 30 116 11.3 22.5 0.00 0.00 0.00 39 1012.3
20260830154530 30 172 8.0 20.9 0.00 0.00 0.00 38 1012.3
20260830153527 30 122 9.7 25.7 0.00 0.00 0.00 38 1012.4
20260830152524 31 112 8.0 20.9 0.00 0.00 0.00 37 1012.5
20260830151522 31 128 8.0 17.7 0.00 0.00 0.00 38 1012.5
20260830150519 31 124 4.8 14.5 0.00 0.00 0.00 37 1012.5
20260830145516 31 109 6.4 14.5 0.00 0.00 0.00 38 1012.5
20260830144614 31 96 8.0 22.5 0.00 0.00 0.00 39 1012.6
20260830143612 31 115 6.4 22.5 0.00 0.00 0.00 38 1012.6
20260830142609 31 97 8.0 20.9 0.00 0.00 0.00 38 1012.8
20260830141606 30 60 8.0 20.9 0.00 0.00 0.00 38 1012.8
20260830140604 31 108 6.4 22.5 0.00 0.00 0.00 38 1013.0
20260830135601 30 107 9.7 20.9 0.00 0.00 0.00 39 1013.0
20260830134559 31 119 6.4 17.7 0.00 0.00 0.00 39 1013.1
20260830133556 30 129 8.0 14.5 0.00 0.00 0.00 42 1013.2
20260830132553 31 127 8.0 17.7 0.00 0.00 0.00 41 1013.2
20260830131551 31 151 4.8 17.7 0.00 0.00 0.00 41 1013.1
20260830130548 31 69 6.4 17.7 0.00 0.00 0.00 43 1013.2
20260830125546 31 150 6.4 22.5 0.00 0.00 0.00 41 1013.2
20260830124543 31 168 6.4 17.7 0.00 0.00 0.00 42 1013.3
20260830123541 31 99 6.4 14.5 0.00 0.00 0.00 42 1013.4
20260830122538 31 198 3.2 11.3 0.00 0.00 0.00 39 1013.7
20260830121535 31 37 4.8 12.9 0.00 0.00 0.00 39 1013.9
20260830120533 31 107 4.8 14.5 0.00 0.00 0.00 38 1013.9
20260830115530 31 81 6.4 12.9 0.00 0.00 0.00 38 1014.0
20260830114528 31 105 3.2 9.7 0.00 0.00 0.00 38 1014.1
20260830113525 31 136 1.6 9.7 0.00 0.00 0.00 37 1014.2
20260830112522 31 117 4.8 20.9 0.00 0.00 0.00 38 1014.2
20260830111520 30 292 3.2 6.4 0.00 0.00 0.00 37 1014.5
20260830110517 30 77 4.8 11.3 0.00 0.00 0.00 38 1014.3
20260830105514 30 18 3.2 9.7 0.00 0.00 0.00 37 1014.5
20260830104612 30 4 4.8 14.5 0.00 0.00 0.00 37 1014.7
20260830103610 30 114 3.2 9.7 0.00 0.00 0.00 39 1014.8
20260830102607 30 64 3.2 11.3 0.00 0.00 0.00 39 1014.7
20260830101604 29 144 3.2 12.9 0.00 0.00 0.00 42 1014.9
20260830100602 29 153 3.2 11.3 0.00 0.00 0.00 43 1015.0
20260830095559 28 106 6.4 14.5 0.00 0.00 0.00 45 1014.9
20260830094557 29 2 3.2 6.4 0.00 0.00 0.00 44 1014.9
20260830093554 28 118 3.2 9.7 0.00 0.00 0.00 46 1015.0
20260830092551 27 124 4.8 9.7 0.00 0.00 0.00 48 1015.0
20260830091549 28 116 1.6 6.4 0.00 0.00 0.00 46 1015.1
20260830090546 28 115 1.6 6.4 0.00 0.00 0.00 48 1015.0
20260830085543 28 135 0.0 3.2 0.00 0.00 0.00 47 1014.9
20260830084541 27 50 1.6 6.4 0.00 0.00 0.00 49 1014.9
20260830083538 27 36 1.6 6.4 0.00 0.00 0.00 49 1014.9
20260830082536 26 102 1.6 6.4 0.00 0.00 0.00 53 1014.8
20260830081533 26 92 1.6 6.4 0.00 0.00 0.00 53 1014.7
20260830080530 26 88 1.6 6.4 0.00 0.00 0.00 54 1014.7
20260830075528 26 68 1.6 3.2 0.00 0.00 0.00 51 1014.7
20260830074525 27 23 0.0 3.2 0.00 0.00 0.00 50 1014.6
20260830073522 26 68 0.0 3.2 0.00 0.00 0.00 51 1014.6
20260830072520 26 0.0 3.2 0.00 0.00 0.00 51 1014.5
20260830071517 25 0.0 0.0 0.00 0.00 0.00 53 1014.5
20260830070515 25 0.0 0.0 0.00 0.00 0.00 53 1014.3
20260830065612 25 0.0 0.0 0.00 0.00 0.00 54 1014.4
20260830064610 23 0.0 0.0 0.00 0.00 0.00 57 1014.4
20260830063607 23 0.0 0.0 0.00 0.00 0.00 59 1014.3